Starlink 4084

operational
NORAD ID: 52657 Int'l Des: 2022-053 Owner: SPXS Country: US Constellation: starlink
LEOCIRCULAR

About Starlink 4084

Description loading...

Live Position

Loading 3D Globe...

Upcoming Passes

Altitude History

Altitude vs Time

uPlot chart will show altitude changes over time

Two-Line Element Set

1 52657U 22053B 25303.63352411 -.00000311 00000-0 -14458-5 0 9999
2 52657 53.2185 18.2806 0001481 94.8220 265.2942 15.08835707191774
Epoch: Oct 30, 2025 • Age: 25 hours

Current Status

Altitude 541.4 km
Velocity 7.59 km/s
Sub-Earth Point -4.95°S, 80.92°W
Launch Date May 18, 2022
Age 3.4 years
Type internet

Technical Details

Classification Payload
Mass 297.00 kg
Dry Mass 275.00 kg
Total Mass 297.00 kg
Length 0.20 m
Diameter 2.80 m
Span 9.00 m
Shape Box + pan
Manufacturer SPXS
Bus Type Starlink
Phase Status In Orbit
Owner/State SPXS/US

Large Constellations

Loading constellations...